DW0307 Weather Reports


Display with metric or nautical units.
time (UTC)temp
F
wind
direction
speed
MPH
gust
MPH
rain 1hr
in
rain 24hr
in
rain mn
in
humidity
%
barometer
mb
20260903193103 55 294 1.0 3.0 0.00 0.03 0.03 78 1019.6
20260903191600 56 292 1.0 3.0 0.00 0.03 0.03 78 1019.6
20260903190051 57 284 2.0 4.0 0.00 0.03 0.03 77 1019.9
20260903184552 57 235 0.0 3.0 0.00 0.03 0.03 78 1019.9
20260903183114 57 311 4.0 9.0 0.00 0.03 0.03 76 1019.8
20260903181554 60 352 0.0 3.0 0.00 0.03 0.03 71 1019.6
20260903180057 62 360 1.0 4.0 0.00 0.03 0.03 70 1019.3
20260903174551 62 9 3.0 7.0 0.00 0.03 0.03 71 1019.2
20260903173058 61 275 1.0 4.0 0.00 0.03 0.03 69 1019.1
20260903171602 63 272 2.0 7.0 0.00 0.03 0.03 66 1018.9
20260903170055 64 249 9.0 13.0 0.00 0.03 0.03 64 1018.9
20260903164555 65 257 7.0 12.0 0.00 0.03 0.03 63 1018.7
20260903163102 66 260 8.0 12.0 0.00 0.03 0.03 63 1018.7
20260903161615 67 259 10.0 18.0 0.00 0.03 0.03 62 1018.8
20260903160053 67 269 12.0 19.0 0.00 0.03 0.03 62 1018.7
20260903154550 67 263 11.0 19.0 0.00 0.03 0.03 61 1018.8
20260903153051 68 252 14.0 20.0 0.00 0.03 0.03 60 1018.5
20260903151550 68 245 13.0 19.0 0.00 0.03 0.03 59 1018.7
20260903144558 69 252 16.0 22.0 0.00 0.03 0.03 58 1019.1
20260903143054 69 246 14.0 23.0 0.00 0.03 0.03 58 1019.0
20260903141549 70 260 16.0 22.0 0.00 0.03 0.03 56 1018.9
20260903140054 70 243 16.0 25.0 0.00 0.03 0.03 56 1019.0
20260903134601 71 252 17.0 24.0 0.00 0.03 0.03 53 1018.9
20260903133100 71 236 14.0 20.0 0.00 0.03 0.03 54 1018.9
20260903131554 72 245 12.0 25.0 0.00 0.03 0.03 53 1019.1
20260903130052 71 85 3.0 9.0 0.00 0.03 0.03 53 1019.2
20260903124603 71 76 4.0 11.0 0.00 0.03 0.03 57 1019.3
20260903123053 70 27 1.0 10.0 0.00 0.03 0.03 57 1019.3
20260903121556 71 43 6.0 12.0 0.00 0.03 0.03 56 1019.3
20260903120049 73 50 8.0 13.0 0.00 0.03 0.03 54 1019.2
20260903114601 73 33 6.0 10.0 0.00 0.03 0.03 54 1019.3
20260903113053 73 250 5.0 14.0 0.00 0.03 0.03 51 1019.4
20260903111550 74 247 6.0 15.0 0.00 0.03 0.03 54 1019.7
20260903110059 72 225 7.0 12.0 0.00 0.03 0.03 54 1019.9
20260903104555 70 93 3.0 7.0 0.00 0.03 0.03 60 1020.1
20260903103052 70 56 1.0 6.0 0.00 0.03 0.03 59 1020.2
20260903101600 70 30 4.0 9.0 0.00 0.03 0.03 56 1020.2
20260903094610 71 38 5.0 10.0 0.00 0.03 0.03 55 1020.2
20260903093053 70 77 3.0 8.0 0.00 0.03 0.03 56 1020.4
20260903091607 71 89 3.0 8.0 0.00 0.03 0.03 56 1020.6
20260903090058 72 221 0.0 5.0 0.00 0.03 0.03 60 1020.6
20260903084554 68 304 1.0 6.0 0.00 0.03 0.03 67 1020.7
20260903083109 66 124 0.0 4.0 0.00 0.03 0.03 69 1020.8
20260903081601 65 113 0.0 2.0 0.00 0.03 0.03 72 1020.7
20260903080047 63 113 0.0 4.0 0.00 0.03 0.03 74 1020.8
20260903074553 63 133 1.0 4.0 0.00 0.03 0.03 73 1020.7
20260903073115 63 0 0.0 3.0 0.00 0.03 0.03 74 1020.6
20260903071553 62 134 2.0 4.0 0.00 0.03 0.03 76 1020.8
20260903070108 62 0 0.0 4.0 0.00 0.03 0.03 73 1020.8
20260903064556 63 231 3.0 5.0 0.00 0.03 0.03 73 1020.8
20260903063100 61 236 3.0 7.0 0.00 0.03 0.03 78 1020.9
20260903061603 59 266 0.0 8.0 0.00 0.03 0.03 80 1020.9
20260903060058 58 269 8.0 11.0 0.00 0.03 0.03 81 1020.7
20260903054555 58 197 3.0 7.0 0.00 0.03 0.03 83 1020.8
20260903053050 58 244 0.0 3.0 0.00 0.03 0.03 88 1020.8
20260903051601 55 244 0.0 2.0 0.00 0.03 0.03 89 1020.8
20260903050059 53 244 2.0 4.0 0.00 0.03 0.03 89 1020.7
20260903044551 51 0 2.0 6.0 0.00 0.03 0.03 89 1020.9
20260903043130 52 256 0.0 9.0 0.00 0.03 0.03 89 1021.0
20260903041556 51 261 11.0 14.0 0.00 0.03 0.03 89 1021.0
20260903040115 51 276 2.0 8.0 0.00 0.03 0.03 89 1020.9
20260903034548 51 230 2.0 4.0 0.03 0.03 0.03 89 1021.0
20260903033101 51 230 3.0 4.0 0.03 0.03 0.03 89 1021.0
20260903031554 50 261 0.0 8.0 0.03 0.03 0.03 89 1021.2
20260903030104 49 113 4.0 6.0 0.03 0.03 0.03 90 1020.9
20260903024601 46 286 4.0 7.0 0.00 0.00 0.00 89 1021.1
20260903023054 45 0 0.0 1.0 0.00 0.00 0.00 88 1020.7
20260903021552 45 0 1.0 4.0 0.00 0.00 0.00 88 1020.7
20260903020056 46 260 0.0 3.0 0.00 0.00 0.00 89 1020.8
20260903014557 43 0 0.0 3.0 0.00 0.00 0.00 88 1020.8
20260903013053 43 0 0.0 0.0 0.00 0.00 0.00 88 1020.9
20260903011557 44 259 2.0 3.0 0.00 0.00 0.00 87 1021.1
20260903010104 44 0 0.0 1.0 0.00 0.00 0.00 87 1021.3
20260903004619 44 0 0.0 3.0 0.00 0.00 0.00 87 1021.4
20260903003048 46 0 0.0 2.0 0.00 0.00 0.00 87 1021.5
20260903001555 46 259 2.0 3.0 0.00 0.00 0.00 87 1021.5
20260903000052 45 259 2.0 4.0 0.00 0.00 0.00 86 1021.4
20260902234549 47 0 0.0 3.0 0.00 0.00 0.00 86 1021.5
20260902233102 47 0 0.0 2.0 0.00 0.00 0.00 86 1021.5
20260902231552 47 0 0.0 2.0 0.00 0.00 0.00 86 1021.7
20260902230050 47 0 0.0 0.0 0.00 0.00 0.00 86 1021.7
20260902224554 47 0 0.0 1.0 0.00 0.00 0.00 86 1021.9
20260902223115 47 0 0.0 2.0 0.00 0.00 0.00 85 1021.8
20260902221554 48 0 0.0 2.0 0.00 0.00 0.00 85 1021.9
20260902220057 48 0 0.0 2.0 0.00 0.00 0.00 85 1022.0
20260902214604 48 0 0.0 2.0 0.00 0.00 0.00 84 1021.9
20260902213100 48 259 2.0 3.0 0.00 0.00 0.00 83 1021.9
20260902211556 50 0 0.0 0.0 0.00 0.00 0.00 83 1021.7
20260902210054 50 0 0.0 0.0 0.00 0.00 0.00 82 1021.8
20260902204637 51 0 0.0 0.0 0.00 0.00 0.00 82 1021.8
20260902203100 52 259 0.0 2.0 0.00 0.00 0.00 82 1021.6
20260902201554 53 0 0.0 2.0 0.00 0.00 0.00 82 1021.7
20260902200055 53 259 0.0 2.0 0.00 0.00 0.00 81 1021.7
20260902194549 54 259 1.0 3.0 0.00 0.00 0.00 82 1021.6